Showing default

IRIDIUM 24, 25105

Orbit data source: Space-Track

IRIDIUM 24, 25105 is a payload satellite owned by Iridium (US) in LEO that was launched on Sat, 20 Dec 1997 UTC via a DELTA 7920-10C launch vehicle from the Air Force Western Test Range (AFWTR). Payload-class satellites include a variety of spacecraft equipped with specific instruments for various scientific and technological missions. These include communications satellites like Starlink; space stations such as the ISS; scientific satellites like the Hubble; Earth observation satellites from companies like Planet Labs, Umbra, and HawkEye 360; GPS; miniature CubeSats for education and research; and military/defense satellites.

Loading next visibility...
Identifier
25105, 1997-082B
Orbit
LEO
Country
Flag of USUS
Related business
Manufacturer
MOTO/LMMS
Mission
Non-operational Commercial Communications
Bus & Motor
LM700, Unknown motor
Mass
662 kg wet, 556 kg dry
Launch date (UTC)
1997-12-20 (28 years ago)
Launch vehicle
DELTA 7920-10C
Launch site
Air Force Western Test Range (AFWTR)
Object type
Payload
Rocket body
Debris
Shape & HBR
Box + 2 Pan, 4.0 m
Radar Cross Section
5.666 m², Large (>1 m²)

Expand to show TLE details & history
Last TLE update: 11 hours ago

TLE from 11 hours ago
0 IRIDIUM 24
1 25105U 97082B   25355.01924859  .00000333  00000-0  94780-4 0  9998
2 25105  86.3906   1.0386 0011576 169.5055 190.6390 14.42334792470149
Epoch: 2025-12-21T00:27Z
TLE epoch observation values (Epoch: 2025-12-21T00:27:43.078Z)
Latitude
0.00007°
Longitude
-95.7286°
Altitude
761.97 km
Speed
7.469 km/s
True Right ascension
00h 04m 09s
True Declination
0° 00' 00"
Sunlit
Object was in daylight at epoch
Visualization orbit readout
Latitude
Unknown
Longitude
Unknown
Altitude
Unknown
Speed
Unknown
Apparent Right ascension
Unknown
Apparent Declination
Unknown
Sunlit
N/A
Visualization observer readout
Local Sidereal Time
10:29:21
Azimuth
Unknown
Elevation
Unknown
Doppler factor
Unknown
Orbital elements
Apogee altitude
755.997 km
Perigee altitude
739.499 km
Semi-major axis
7,125.885 km
Eccentricity
0.00116
Inclination
86.3906°
RAAN
1.0386°
Arg. of periapsis
169.5055°
True anomaly
190.61454°
Mean anomaly
190.639°
Eccentric anomaly
190.62677°
Mean motion
3.60815 °/min
Orbital period
99.77 mins
BSTAR
0.00009478
Loading maneuver chart data...
Computing Atmospheric mass density...

Documentation

Showing up to 5 results
|